GW5498 Weather Reports


Display with metric or nautical units.
time (UTC)temp
F
wind
direction
speed
MPH
gust
MPH
rain 1hr
in
rain 24hr
in
rain mn
in
humidity
%
barometer
mb
20260506000828 44 9 3.0 7.0 0.00 0.00 0.00 81 1014.9
20260505235829 45 344 3.0 5.0 0.00 0.00 0.00 80 1014.9
20260505234829 45 298 3.0 6.0 0.00 0.00 0.00 80 1015.0
20260505233833 45 358 2.0 5.0 0.00 0.00 0.00 79 1015.0
20260505233330 45 24 2.0 5.0 0.00 0.00 0.00 79 1015.0
20260505232830 45 352 2.0 6.0 0.00 0.00 0.00 78 1015.0
20260505232325 45 342 2.0 6.0 0.00 0.00 0.00 78 1015.1
20260505231824 45 359 3.0 7.0 0.00 0.00 0.00 78 1015.1
20260505231324 45 352 3.0 7.0 0.00 0.00 0.00 77 1015.1
20260505230826 45 343 2.0 9.0 0.00 0.00 0.00 77 1015.2
20260505230325 45 2 2.0 9.0 0.00 0.00 0.00 77 1015.2
20260505225825 46 15 2.0 8.0 0.00 0.00 0.00 77 1015.2
20260505225324 46 27 2.0 6.0 0.00 0.00 0.00 77 1015.2
20260505224823 46 332 2.0 6.0 0.00 0.00 0.00 77 1015.1
20260505224322 46 354 2.0 6.0 0.00 0.00 0.00 77 1015.2
20260505224044 46 345 3.0 7.0 0.00 0.00 0.00 77 1015.2
20260505223544 46 57 3.0 9.0 0.00 0.00 0.00 76 1015.2
20260505223043 46 314 3.0 9.0 0.00 0.00 0.00 76 1015.1
20260505222317 46 106 3.0 7.0 0.00 0.00 0.00 76 1015.2
20260505221818 46 62 3.0 7.0 0.00 0.00 0.00 76 1015.2
20260505221317 46 0 4.0 8.0 0.00 0.00 0.00 76 1015.1
20260505220817 46 67 4.0 8.0 0.00 0.00 0.00 76 1015.1
20260505220317 46 47 3.0 8.0 0.00 0.00 0.00 76 1015.2
20260505215814 46 350 3.0 8.0 0.00 0.00 0.00 76 1015.2
20260505215312 46 6 3.0 9.0 0.00 0.00 0.00 77 1015.3
20260505214812 47 59 3.0 9.0 0.00 0.00 0.00 77 1015.3
20260505214311 47 57 2.0 7.0 0.00 0.00 0.00 78 1015.3
20260505213808 47 14 2.0 6.0 0.00 0.00 0.00 78 1015.3
20260505213308 47 14 2.0 7.0 0.00 0.00 0.00 78 1015.3
20260505212807 47 347 3.0 7.0 0.00 0.00 0.00 78 1015.3
20260505212308 47 96 3.0 8.0 0.00 0.00 0.00 78 1015.3
20260505211808 47 21 3.0 8.0 0.00 0.00 0.00 79 1015.3
20260505211308 47 120 3.0 8.0 0.00 0.00 0.00 79 1015.3
20260505210809 47 44 3.0 8.0 0.00 0.00 0.00 79 1015.2
20260505210308 47 128 2.0 8.0 0.00 0.00 0.00 79 1015.2
20260505205808 47 327 2.0 9.0 0.00 0.00 0.00 79 1015.2
20260505204807 48 7 3.0 9.0 0.00 0.00 0.00 79 1015.1
20260505203802 48 1 3.0 9.0 0.00 0.00 0.00 79 1015.1
20260505202802 48 355 3.0 10.0 0.00 0.00 0.00 78 1015.0
20260505201803 48 4 3.0 8.0 0.00 0.00 0.00 78 1014.9
20260505201304 48 24 3.0 7.0 0.00 0.00 0.00 78 1014.9
20260505200803 49 28 3.0 8.0 0.00 0.00 0.00 78 1014.8
20260505200306 49 26 3.0 9.0 0.00 0.00 0.00 78 1014.8
20260505195804 49 102 3.0 9.0 0.00 0.00 0.00 78 1014.7
20260505195304 49 39 3.0 8.0 0.00 0.00 0.00 78 1014.6
20260505194802 49 27 2.0 6.0 0.00 0.00 0.00 78 1014.6
20260505194301 49 30 2.0 6.0 0.00 0.00 0.00 78 1014.5
20260505193802 49 90 2.0 6.0 0.00 0.00 0.00 78 1014.5
20260505193258 50 70 2.0 5.0 0.00 0.00 0.00 78 1014.5
20260505192757 50 49 2.0 7.0 0.00 0.00 0.00 78 1014.4
20260505192258 50 0 3.0 7.0 0.00 0.00 0.00 78 1014.3
20260505191757 50 0 2.0 6.0 0.00 0.00 0.00 78 1014.2
20260505191258 50 355 2.0 6.0 0.00 0.00 0.00 78 1014.3
20260505190758 50 0 2.0 8.0 0.00 0.00 0.00 78 1014.3
20260505190258 50 346 3.0 8.0 0.00 0.00 0.00 78 1014.2
20260505185756 50 342 3.0 8.0 0.00 0.00 0.00 78 1014.2
20260505184257 51 344 3.0 7.0 0.00 0.00 0.00 78 1014.0
20260505183257 51 328 2.0 6.0 0.00 0.00 0.00 78 1014.0
20260505182257 51 359 3.0 8.0 0.00 0.00 0.00 78 1013.9
20260505181257 51 348 4.0 11.0 0.00 0.00 0.00 77 1013.9
20260505180758 51 33 3.0 7.0 0.00 0.00 0.00 77 1013.9
20260505180253 51 1 3.0 8.0 0.00 0.00 0.00 77 1013.9
20260505175753 51 0 3.0 8.0 0.00 0.00 0.00 77 1013.9
20260505175252 52 246 3.0 8.0 0.00 0.00 0.00 77 1013.9
20260505174754 52 1 3.0 9.0 0.00 0.00 0.00 76 1013.8
20260505174252 52 49 4.0 9.0 0.00 0.00 0.00 76 1013.8
20260505173752 52 307 3.0 8.0 0.00 0.00 0.00 75 1013.6
20260505173252 52 349 3.0 8.0 0.00 0.00 0.00 75 1013.8
20260505172751 52 0 3.0 10.0 0.00 0.00 0.00 75 1013.6
20260505171752 53 0 4.0 9.0 0.00 0.00 0.00 74 1013.8
20260505171252 53 70 4.0 9.0 0.00 0.00 0.00 74 1013.8
20260505170752 53 347 4.0 9.0 0.00 0.00 0.00 74 1013.8
20260505170253 54 16 4.0 9.0 0.00 0.00 0.00 73 1013.8
20260505165749 54 30 4.0 9.0 0.00 0.00 0.00 72 1013.8
20260505165515 55 347 3.0 8.0 0.00 0.00 0.00 69 1013.5
20260505164247 56 312 2.0 8.0 0.00 0.00 0.00 61 1013.4
20260505162747 56 0 2.0 7.0 0.00 0.00 0.00 60 1013.4
20260505161748 56 320 2.0 9.0 0.00 0.00 0.00 58 1013.4
20260505160743 56 355 3.0 6.0 0.00 0.00 0.00 58 1013.4
20260505160242 56 355 3.0 9.0 0.00 0.00 0.00 59 1013.4
20260505153242 56 358 3.0 7.0 0.00 0.00 0.00 60 1013.4
20260505152743 56 347 3.0 9.0 0.00 0.00 0.00 60 1013.4
20260505152242 56 323 3.0 9.0 0.00 0.00 0.00 60 1013.3
20260505151742 56 336 3.0 9.0 0.00 0.00 0.00 60 1013.4
20260505151245 56 27 3.0 9.0 0.00 0.00 0.00 60 1013.4
20260505150743 56 349 2.0 7.0 0.00 0.00 0.00 60 1013.4
20260505150239 56 32 2.0 6.0 0.00 0.00 0.00 61 1013.4
20260505140238 58 283 3.0 10.0 0.00 0.00 0.00 57 1013.4
20260505130234 57 320 2.0 8.0 0.00 0.00 0.00 56 1013.4
20260505124735 56 327 2.0 6.0 0.00 0.00 0.00 57 1013.4
20260505124236 56 305 3.0 6.0 0.00 0.00 0.00 57 1013.5
20260505123735 57 328 3.0 7.0 0.00 0.00 0.00 57 1013.5
20260505123235 57 2 2.0 7.0 0.00 0.00 0.00 56 1013.5
20260505122734 57 338 2.0 6.0 0.00 0.00 0.00 57 1013.5
20260505122233 56 0 2.0 6.0 0.00 0.00 0.00 57 1013.5
20260505121734 56 1 2.0 6.0 0.00 0.00 0.00 59 1013.5
20260505121233 56 0 2.0 6.0 0.00 0.00 0.00 58 1013.5
20260505120730 56 312 2.0 6.0 0.00 0.00 0.00 59 1013.5
20260505120229 56 349 2.0 5.0 0.00 0.00 0.00 59 1013.5
20260505115728 56 357 2.0 5.0 0.00 0.00 0.00 59 1013.5
20260505115227 56 28 2.0 5.0 0.00 0.00 0.00 59 1013.5
20260505114728 56 38 2.0 5.0 0.00 0.00 0.00 59 1013.5
20260505114228 56 311 1.0 5.0 0.00 0.00 0.00 59 1013.6
20260505113728 56 295 1.0 6.0 0.00 0.00 0.00 59 1013.6
20260505113228 56 293 1.0 6.0 0.00 0.00 0.00 60 1013.8
20260505112729 56 321 2.0 6.0 0.00 0.00 0.00 60 1013.8
20260505112225 56 9 2.0 6.0 0.00 0.00 0.00 61 1013.8
20260505111724 56 5 2.0 6.0 0.00 0.00 0.00 61 1013.8
20260505111225 57 349 2.0 7.0 0.00 0.00 0.00 60 1013.8
20260505110723 56 92 1.0 7.0 0.00 0.00 0.00 60 1013.8
20260505110223 56 123 2.0 6.0 0.00 0.00 0.00 58 1013.8
20260505101719 55 353 3.0 7.0 0.00 0.00 0.00 62 1014.0
20260505100219 54 0 3.0 10.0 0.00 0.00 0.00 63 1014.1
20260505095718 54 340 3.0 10.0 0.00 0.00 0.00 65 1014.1
20260505095218 54 4 4.0 9.0 0.00 0.00 0.00 65 1014.1
20260505094219 54 241 3.0 9.0 0.00 0.00 0.00 65 1014.1
20260505093719 54 322 3.0 8.0 0.00 0.00 0.00 65 1014.1
20260505093218 54 353 3.0 7.0 0.00 0.00 0.00 66 1014.1
20260505092715 54 36 3.0 7.0 0.00 0.00 0.00 68 1014.0
20260505092438 54 26 3.0 10.0 0.00 0.00 0.00 68 1014.0
20260505091438 53 344 3.0 9.0 0.00 0.00 0.00 69 1014.0
20260505090212 53 0 3.0 10.0 0.00 0.00 0.00 72 1013.9
20260505085441 52 305 3.0 8.0 0.00 0.00 0.00 72 1013.9
20260505084714 52 331 4.0 8.0 0.00 0.00 0.00 73 1014.0
20260505083714 52 333 3.0 7.0 0.00 0.00 0.00 73 1013.9
20260505083213 52 326 2.0 7.0 0.00 0.00 0.00 74 1013.9
20260505082713 52 0 2.0 7.0 0.00 0.00 0.00 75 1014.0
20260505082214 52 0 2.0 7.0 0.00 0.00 0.00 76 1014.0
20260505081715 51 358 3.0 7.0 0.00 0.00 0.00 76 1014.0
20260505081210 51 9 2.0 7.0 0.00 0.00 0.00 76 1014.0
20260505080709 51 350 2.0 6.0 0.00 0.00 0.00 76 1014.0
20260505080209 51 6 2.0 6.0 0.00 0.00 0.00 77 1014.0
20260505075709 51 18 2.0 5.0 0.00 0.00 0.00 77 1013.9
20260505075209 51 8 2.0 5.0 0.00 0.00 0.00 77 1013.8
20260505074710 51 340 3.0 7.0 0.00 0.00 0.00 77 1013.8
20260505074209 51 343 2.0 7.0 0.00 0.00 0.00 77 1013.8
20260505073708 51 308 2.0 5.0 0.00 0.00 0.00 77 1013.6
20260505073208 51 24 2.0 5.0 0.00 0.00 0.00 77 1013.6
20260505072704 51 316 2.0 6.0 0.00 0.00 0.00 78 1013.6
20260505072203 51 1 2.0 6.0 0.00 0.00 0.00 78 1013.5
20260505071703 51 7 2.0 5.0 0.00 0.00 0.00 79 1013.5
20260505071203 51 334 2.0 5.0 0.00 0.00 0.00 80 1013.5
20260505070703 50 0 1.0 5.0 0.00 0.00 0.00 82 1013.6
20260505070203 50 13 1.0 5.0 0.00 0.00 0.00 84 1013.6
20260505065703 49 7 2.0 5.0 0.00 0.00 0.00 86 1013.8
20260505065203 48 305 2.0 5.0 0.00 0.00 0.00 88 1013.9
20260505064703 48 2 2.0 5.0 0.00 0.00 0.00 91 1013.9
20260505064203 47 324 2.0 7.0 0.00 0.00 0.00 92 1013.9
20260505063704 47 35 2.0 7.0 0.00 0.00 0.00 94 1013.8
20260505063203 46 61 1.0 3.0 0.00 0.00 0.00 95 1013.8
20260505062704 45 0 0.0 2.0 0.00 0.00 0.00 95 1013.9
20260505062203 44 0 0.0 1.0 0.00 0.00 0.00 96 1013.9
20260505061704 43 0 0.0 0.0 0.00 0.00 0.00 96 1013.9
20260505061203 43 0 0.0 2.0 0.00 0.00 0.00 96 1013.9
20260505060652 43 0 1.0 2.0 0.00 0.00 0.00 96 1013.9
20260505060151 42 335 1.0 3.0 0.00 0.00 0.00 96 1013.9
20260505055652 42 311 0.0 3.0 0.00 0.00 0.00 96 1013.9
20260505055152 42 0 0.0 2.0 0.00 0.00 0.00 96 1013.9
20260505054651 42 0 0.0 2.0 0.00 0.00 0.00 96 1013.9
20260505054152 42 308 0.0 2.0 0.00 0.00 0.00 96 1013.9
20260505053652 42 0 0.0 2.0 0.00 0.00 0.00 96 1013.9
20260505053135 41 310 0.0 2.0 0.00 0.00 0.00 96 1014.0
20260505052635 41 0 0.0 0.0 0.00 0.00 0.00 96 1014.0
20260505052134 41 0 0.0 0.0 0.00 0.00 0.00 96 1013.9
20260505051639 41 0 0.0 0.0 0.00 0.00 0.00 96 1013.9
20260505051135 40 0 0.0 0.0 0.00 0.00 0.00 96 1013.9
20260505050839 40 0 0.0 0.0 0.00 0.00 0.00 96 1013.8
20260505050325 40 0 0.0 0.0 0.00 0.00 0.00 96 1013.8
20260505041605 42 0 0.0 0.0 0.00 0.00 0.00 96 1013.6
20260505041050 42 0 0.0 0.0 0.00 0.00 0.00 96 1013.6
20260505040551 42 0 0.0 0.0 0.00 0.00 0.00 96 1013.5
20260505040051 42 0 0.0 0.0 0.00 0.00 0.00 96 1013.6
20260505035551 42 0 0.0 0.0 0.00 0.00 0.00 96 1013.5
20260505035051 42 0 0.0 0.0 0.00 0.00 0.00 96 1013.5
20260505034551 42 0 0.0 0.0 0.00 0.00 0.00 96 1013.4
20260505034051 42 0 0.0 0.0 0.00 0.00 0.00 96 1013.4
20260505033552 42 0 0.0 0.0 0.00 0.00 0.00 96 1013.4
20260505033050 43 0 0.0 0.0 0.00 0.00 0.00 96 1013.4
20260505032550 43 0 0.0 0.0 0.00 0.00 0.00 96 1013.4
20260505032050 43 0 0.0 0.0 0.00 0.00 0.00 96 1013.4
20260505031550 43 0 0.0 0.0 0.00 0.00 0.00 96 1013.5
20260505031037 43 0 0.0 0.0 0.00 0.00 0.00 95 1013.5
20260505030537 44 0 0.0 0.0 0.00 0.00 0.00 95 1013.5
20260505030038 44 0 0.0 0.0 0.00 0.00 0.00 95 1013.5
20260505025537 44 0 0.0 0.0 0.00 0.00 0.00 95 1013.5
20260505025037 44 0 0.0 0.0 0.00 0.00 0.00 95 1013.6
20260505024542 44 0 0.0 0.0 0.00 0.00 0.00 95 1013.6
20260505024041 44 0 0.0 0.0 0.00 0.00 0.00 95 1013.8
20260505023541 44 0 0.0 0.0 0.00 0.00 0.00 95 1013.8
20260505023041 44 0 0.0 0.0 0.00 0.00 0.00 95 1013.8
20260505022541 44 0 0.0 0.0 0.00 0.00 0.00 95 1013.9
20260505022042 45 0 0.0 0.0 0.00 0.00 0.00 95 1013.9
20260505021524 45 0 0.0 0.0 0.00 0.00 0.00 95 1013.9
20260505021023 45 0 0.0 2.0 0.00 0.00 0.00 95 1013.9
20260505020523 45 0 0.0 2.0 0.00 0.00 0.00 95 1013.9
20260505020023 45 0 0.0 0.0 0.00 0.00 0.00 95 1014.0
20260505015523 45 0 0.0 0.0 0.00 0.00 0.00 95 1014.0
20260505015023 45 0 0.0 0.0 0.00 0.00 0.00 95 1014.0
20260505014523 46 0 0.0 0.0 0.00 0.00 0.00 94 1014.1
20260505014008 46 0 0.0 0.0 0.00 0.00 0.00 94 1014.1
20260505013508 46 0 0.0 0.0 0.00 0.00 0.00 94 1014.1
20260505013008 47 0 0.0 0.0 0.00 0.00 0.00 94 1014.1
20260505012509 47 0 0.0 0.0 0.00 0.00 0.00 95 1014.2
20260505012008 47 0 0.0 0.0 0.00 0.00 0.00 94 1014.2
20260505011724 47 0 0.0 0.0 0.00 0.00 0.00 94 1014.2
20260505010957 47 0 0.0 2.0 0.00 0.00 0.00 94 1014.2
20260505010218 47 0 0.0 0.0 0.00 0.00 0.00 94 1014.3
20260505005457 47 0 0.0 0.0 0.00 0.00 0.00 94 1014.4
20260505004214 47 0 0.0 0.0 0.00 0.00 0.00 94 1014.5
20260505003440 48 0 0.0 0.0 0.00 0.00 0.00 94 1014.5
20260505002444 48 0 0.0 3.0 0.00 0.00 0.00 94 1014.6